COSMOS 1275 DEB, 42178

Orbit data source: Space-Track

COSMOS 1275 DEB, 42178 is space debris in LEO originally from a launch on Thu, 04 Jun 1981 UTC launched from the Plesetsk Missile And Space Complex (PKMTR). Debris objects in space refer to the collection of defunct objects orbiting the Earth. Examples of debris include non-operational satellites, rocket bodies, and fragments generated from explosions, collisions, or faulty payload assembly.

Loading next visibility...
Identifier
42178, 1981-053SS
Orbit
LEO
Country
Flag of CISCIS
Related business
Manufacturer
Unknown
Mission
Spacecraft
Bus & Motor
Unknown
Mass
Unknown
Launch date (UTC)
1981-06-04 (44 years ago)
Launch vehicle
Unknown
Launch site
Plesetsk Missile And Space Complex (PKMTR)
Object type
Payload
Rocket body
Debris
Shape & HBR
Unknown shape, 0.1 m
Radar Cross Section
Small (<0.1 m²)

Expand to show TLE details & history
Last TLE update: 1 week ago

TLE from 1 week ago
0 COSMOS 1275 DEB
1 42178U 81053SS  25290.17990413  .00005323  00000-0  21476-2 0  9996
2 42178  82.9368 261.6427 0011162   1.2154 358.9056 14.27772537596250
Epoch: 2025-10-17T04:19Z
TLE epoch observation values (Epoch: 2025-10-17T04:19:03.716Z)
Latitude
-0.0001°
Longitude
170.94822°
Altitude
794.148 km
Speed
7.461 km/s
True Right ascension
17h 26m 34s
True Declination
0° 00' 00"
Sunlit
Object was in daylight at epoch
Visualization orbit readout
Latitude
Unknown
Longitude
Unknown
Altitude
Unknown
Speed
Unknown
Apparent Right ascension
Unknown
Apparent Declination
Unknown
Sunlit
N/A
Visualization observer readout
Local Sidereal Time
04:46:53
Azimuth
Unknown
Elevation
Unknown
Doppler factor
Unknown
Orbital elements
Apogee altitude
804.27 km
Perigee altitude
788.254 km
Semi-major axis
7,174.399 km
Eccentricity
0.00112
Inclination
82.9368°
RAAN
261.6427°
Arg. of periapsis
1.2154°
True anomaly
358.90315°
Mean anomaly
358.9056°
Eccentric anomaly
358.90438°
Mean motion
3.57162 °/min
Orbital period
100.79 mins
BSTAR
0.0021476
Loading maneuver chart data...
Computing Atmospheric mass density...
Loading historical data...
Loading historical data...
Loading historical data...
Loading historical data...
Loading historical data...
Loading historical data...
Loading historical data...

Documentation

Showing up to 5 results
|